Location: Gro�bocka
(50.8204°N, 11.9702°E)
Time: 14:53:29
(UTC+00:00)

SMAP - Pass Details

Date: 29 October 2020
Orbit: 681 x 683 km, 98.1° (Epoch: 29 November)

Event Time Altitude Azimuth Distance (km) Brightness Sun altitude
Rises 16:23:31 0° 163° (SSE) 3,035 6.4 -5.6°
Reaches altitude 10° 16:25:45 10° 163° (SSE) 2,124 5.6 -6.0°
Maximum altitude 16:30:24 89° 77° (ENE) 691 3.1 -6.7°
Drops below altitude 10° 16:35:06 10° 346° (NNW) 2,140 5.7 -7.4°
Sets 16:37:21 0° 346° (NNW) 3,060 6.4 -7.8°
